Location: Broekland
(52.3610°N, 6.2005°E)
Time: 16:50:01
(UTC+00:00)

ASTEX 1 - Pass Details

Date: 19 May 2025
Orbit: 715 x 734 km, 92.7° (Epoch: 17 June)

Event Time Altitude Azimuth Distance (km) Brightness Sun altitude
Rises 23:16:42 0° 8° (N) 3,162 8.3 -17.6°
Reaches altitude 10° 23:19:02 10° 11° (NNE) 2,239 7.1 -17.6°
Maximum altitude 23:23:57 62° 93° (E) 827 3.6 -17.6°
Enters shadow 23:26:12 31° 162° (SSE) 1,263 4.1 -17.6°
